GW4905 Weather Reports


Display with metric or nautical units.
time (UTC)temp
F
wind
direction
speed
MPH
gust
MPH
rain 1hr
in
rain 24hr
in
rain mn
in
humidity
%
barometer
mb
20260505152501 77 239 5.0 12.0 0.00 0.00 0.00 39 1009.3
20260505151509 77 206 4.0 10.0 0.00 0.00 0.00 41 1009.3
20260505115402 61 191 2.0 7.0 0.00 0.00 0.00 61 1010.7
20260505114444 60 198 1.0 4.0 0.00 0.00 0.00 64 1010.7
20260505111438 58 189 1.0 4.0 0.00 0.00 0.00 66 1010.6
20260505082214 60 163 1.0 4.0 0.00 0.00 0.00 63 1009.4
20260505080435 60 192 1.0 3.0 0.00 0.00 0.00 62 1009.2
20260505071026 62 189 1.0 4.0 0.00 0.00 0.00 59 1008.9
20260505063844 63 194 2.0 6.0 0.00 0.00 0.00 56 1008.9
20260505055719 63 192 1.0 4.0 0.00 0.00 0.00 58 1009.0
20260505051603 63 177 1.0 5.0 0.00 0.00 0.00 56 1009.1
20260505034333 63 191 1.0 4.0 0.00 0.00 0.00 54 1008.8
20260505032716 63 180 1.0 3.0 0.00 0.00 0.00 52 1008.8
20260505032547 63 180 1.0 3.0 0.00 0.00 0.00 52 1008.8
20260505025613 63 178 1.0 4.0 0.00 0.00 0.00 52 1008.8
20260505023739 64 175 1.0 3.0 0.00 0.00 0.00 50 1008.9
20260505020936 64 137 0.0 1.0 0.00 0.00 0.00 49 1008.7
20260505015108 65 184 0.0 2.0 0.00 0.00 0.00 48 1008.7
20260505013238 65 192 1.0 2.0 0.00 0.00 0.00 48 1008.6
20260505011540 65 156 1.0 2.0 0.00 0.00 0.00 46 1008.3
20260505005715 66 161 1.0 2.0 0.00 0.00 0.00 46 1008.0
20260505003711 67 170 1.0 2.0 0.00 0.00 0.00 44 1007.9
20260505001841 67 172 1.0 3.0 0.00 0.00 0.00 43 1007.9
20260505000013 68 175 1.0 2.0 0.00 0.00 0.00 42 1007.8
20260504234130 69 162 1.0 2.0 0.00 0.00 0.00 40 1007.4
20260504232300 70 162 1.0 3.0 0.00 0.00 0.00 39 1007.4
20260504230430 71 173 1.0 4.0 0.00 0.00 0.00 38 1007.4
20260504225636 71 170 1.0 3.0 0.00 0.00 0.00 37 1007.4
20260504224543 71 159 1.0 5.0 0.00 0.00 0.00 37 1007.4
20260504223618 71 174 2.0 5.0 0.00 0.00 0.00 37 1007.4
20260504222654 72 194 1.0 4.0 0.00 0.00 0.00 37 1007.4
20260504221731 72 176 1.0 4.0 0.00 0.00 0.00 37 1007.4
20260504215706 72 196 2.0 8.0 0.00 0.00 0.00 36 1007.4
20260504214614 72 177 2.0 9.0 0.00 0.00 0.00 36 1007.4
20260504213643 74 177 2.0 7.0 0.00 0.00 0.00 37 1007.4
20260504212720 73 182 3.0 10.0 0.00 0.00 0.00 36 1007.5
20260504211757 75 198 2.0 6.0 0.00 0.00 0.00 36 1007.4
20260504210748 75 194 2.0 7.0 0.00 0.00 0.00 37 1007.3
20260504205823 74 180 3.0 7.0 0.00 0.00 0.00 36 1007.5
20260504204859 74 186 3.0 7.0 0.00 0.00 0.00 37 1007.6
20260504203933 75 182 2.0 7.0 0.00 0.00 0.00 36 1007.5
20260504203010 75 211 3.0 7.0 0.00 0.00 0.00 36 1007.5
20260504201110 73 193 2.0 5.0 0.00 0.00 0.00 35 1008.0
20260504200147 73 194 2.0 6.0 0.00 0.00 0.00 34 1008.2
20260504193009 73 195 3.0 8.0 0.00 0.00 0.00 35 1008.7
20260504192154 72 206 2.0 6.0 0.00 0.00 0.00 34 1008.9
20260504185929 74 171 2.0 6.0 0.00 0.00 0.00 36 1009.1
20260504185133 71 190 3.0 10.0 0.00 0.00 0.00 37 1009.4
20260504184035 74 179 2.0 8.0 0.00 0.00 0.00 38 1009.5
20260504181943 72 186 3.0 8.0 0.00 0.00 0.00 36 1009.8
20260504175822 70 176 2.0 8.0 0.00 0.00 0.00 35 1010.1
20260504174859 70 200 3.0 9.0 0.00 0.00 0.00 36 1010.1
20260504173852 70 183 2.0 6.0 0.00 0.00 0.00 37 1010.3
20260504171800 69 178 2.0 7.0 0.00 0.00 0.00 36 1010.5
20260504170833 69 198 3.0 5.0 0.00 0.00 0.00 38 1010.6